Location: Phoenix
(33.4480°N, 112.0730°W)
Time: 10:22:34
(UTC-07:00)

Cosmos 1470 Rocket - Visible Passes

Search period start: 24 April 2014 00:00
Search period end: 04 May 2014 00:00
Orbit: 605 x 637 km, 82.5° (Epoch: 23 April)

Date Brightness Start Highest point End Pass type
(mag) Time Alt. Az. Time Alt. Az. Time Alt. Az.
24 Apr 3.6 04:31:00 17° SSW 04:34:25 64° W 04:38:50 10° N visible
25 Apr 6.2 03:12:13 11° SE 03:14:50 17° E 03:17:40 10° NE visible
25 Apr 4.4 04:49:26 15° SW 04:52:25 31° W 04:56:23 10° NNW visible
26 Apr 5.1 03:30:35 22° SE 03:32:35 33° E 03:36:33 10° NNE visible
26 Apr 5.3 05:07:49 10° WSW 05:10:31 16° WNW 05:13:18 10° NW visible
27 Apr 3.8 03:48:54 40° SSE 03:50:25 69° E 03:54:49 10° NNE visible
28 Apr 3.6 04:07:10 42° SW 04:08:21 56° W 04:12:42 10° N visible
29 Apr 5.8 02:48:10 19° E 02:48:42 19° E 02:51:48 10° NE visible
29 Apr 4.6 04:25:23 25° W 04:26:22 28° WNW 04:30:09 10° NNW visible
30 Apr 4.7 03:06:20 37° E 03:06:28 37° E 03:10:32 10° NNE visible
30 Apr 5.4 04:43:33 14° W 04:44:28 14° WNW 04:46:52 10° NW visible
01 May 3.6 03:24:29 77° ENE 03:24:29 77° ENE 03:28:43 10° N visible
02 May 6.5 02:05:22 10° ENE 02:05:22 10° ENE 02:05:36 10° ENE visible
02 May 3.9 03:42:35 48° WNW 03:42:35 48° WNW 03:46:31 10° N visible
03 May 5.9 02:23:27 20° ENE 02:23:27 20° ENE 02:25:52 10° NE visible
03 May 4.9 04:00:39 24° WNW 04:00:39 24° WNW 04:03:53 10° NNW visible
